Grand Island, NE

3:24 AM CDT on October 23, 2019 (GMT -0500)
Central Nebraska Regional

Weather History for KGRI - September, 2019

Change the Weather History Date:

Friday, September 20, 2019

  Actual Average Record
Temperature  
Mean Temperature 78 °F 63 °F  
Max Temperature 86 °F 76 °F 95 °F (1920)
Min Temperature 70 °F 50 °F 32 °F (1995)
Degree Days  
Heating Degree Days 0 4  
Month to date heating degree days 0 46  
Since 1 July heating degree days 1 56  
Cooling Degree Days 13 3  
Month to date cooling degree days 185 92  
Year to date cooling degree days 1106 1006  
Growing Degree Days 28 (Base 50)    
Moisture  
Dew Point 66 °F    
Average Humidity 65    
Maximum Humidity 84    
Minimum Humidity 45    
Precipitation  
Precipitation 0.00 in 0.07 in 1.19 in (1965)
Month to date precipitation 0.54 1.52  
Year to date precipitation 34.12 22.29  
Snow  
Snow 0.00 in 0.00 in - ()
Month to date snowfall 0.0 0.0  
Since 1 July snowfall 0.0 0.0  
Since 1 September snowfall 0.0 0.0  
Snow Depth 0.00 in    
Sea Level Pressure  
Sea Level Pressure 29.87 in    
Wind  
Wind Speed 14 mph (SSE)    
Max Wind Speed 23 mph    
Max Gust Speed 33 mph    
Visibility 10 miles    
Events      
T = Trace of Precipitation, MM = Missing Value Source: NWS Daily Summary

Daily Weather History Graph

Daily Weather History Graph

Search for Another Location

Airport or City:

Astronomy

Sep. 20, 2019 Rise Set
Actual Time 7:18 AM CDT 7:34 PM CDT
Civil Twilight 6:51 AM CDT 8:01 PM CDT
Nautical Twilight 6:18 AM CDT 8:33 PM CDT
Astronomical Twilight 5:45 AM CDT 9:06 PM CDT
Moon 11:22 PM CDT (9/20) 1:27 PM CDT (9/20)
Length of Visible Light 13h 10m
Length of Day
12h 15m
Waning Gibbous, 65% of the Moon is Illuminated
Sep 20
Waning Gibbous
Sep 21
Last Quarter
Sep 28
New
Oct 5
First Quarter
Oct 13
Full

Hourly Weather History & Observations

Time (CDT) Temp. Heat Index Dew Point Humidity Pressure Visibility Wind Dir Wind Speed Gust Speed Precip Events Conditions
12:53 AM 73.0 °F - 66.0 °F 79% 29.92 in 10.0 mi SSE 9.2 mph - N/A   Clear
1:53 AM 73.0 °F - 66.0 °F 79% 29.92 in 10.0 mi SSE 10.4 mph - N/A   Clear
2:53 AM 73.0 °F - 66.0 °F 79% 29.91 in 10.0 mi SSE 12.7 mph - N/A   Clear
3:53 AM 72.0 °F - 66.0 °F 81% 29.90 in 10.0 mi SSE 11.5 mph 19.6 mph N/A   Clear
4:53 AM 72.0 °F - 66.0 °F 81% 29.90 in 10.0 mi South 9.2 mph - N/A   Clear
5:53 AM 71.1 °F - 66.0 °F 84% 29.91 in 10.0 mi South 8.1 mph - N/A   Clear
6:53 AM 71.1 °F - 66.0 °F 84% 29.92 in 10.0 mi South 9.2 mph - N/A   Scattered Clouds
7:53 AM 71.1 °F - 66.0 °F 84% 29.94 in 10.0 mi South 11.5 mph - N/A   Clear
8:53 AM 71.1 °F - 66.9 °F 87% 29.94 in 10.0 mi SSE 8.1 mph - N/A   Clear
9:53 AM 75.0 °F - 68.0 °F 79% 29.93 in 10.0 mi South 9.2 mph - N/A   Clear
10:53 AM 78.1 °F - 68.0 °F 71% 29.93 in 10.0 mi SSE 15.0 mph 21.9 mph N/A   Clear
11:53 AM 80.1 °F 82.7 °F 68.0 °F 67% 29.91 in 10.0 mi SSE 12.7 mph 23.0 mph N/A   Clear
12:53 PM 82.9 °F 85.0 °F 66.0 °F 56% 29.89 in 10.0 mi South 18.4 mph 29.9 mph N/A   Partly Cloudy
1:53 PM 86.0 °F 86.3 °F 62.1 °F 44% 29.86 in 10.0 mi SSE 18.4 mph 31.1 mph N/A   Partly Cloudy
2:53 PM 82.9 °F 83.3 °F 61.0 °F 47% 29.85 in 10.0 mi SSE 19.6 mph 28.8 mph N/A   Mostly Cloudy
3:53 PM 82.0 °F 83.1 °F 63.0 °F 52% 29.83 in 10.0 mi SSE 19.6 mph 27.6 mph N/A   Scattered Clouds
4:53 PM 82.9 °F 84.4 °F 64.0 °F 53% 29.81 in 10.0 mi SSE 15.0 mph 25.3 mph N/A   Mostly Cloudy
5:53 PM 80.1 °F 81.9 °F 64.9 °F 60% 29.80 in 10.0 mi SSE 18.4 mph 29.9 mph N/A   Partly Cloudy
6:53 PM 77.0 °F - 64.9 °F 66% 29.80 in 10.0 mi SE 17.3 mph 31.1 mph N/A   Clear
7:49 PM 75.2 °F - 66.2 °F 73% 29.84 in 10.0 mi SSE 18.4 mph 32.2 mph N/A   Mostly Cloudy
7:53 PM 73.9 °F - 66.0 °F 76% 29.82 in 10.0 mi SSE 18.4 mph 29.9 mph N/A   Mostly Cloudy
8:53 PM 73.0 °F - 66.0 °F 79% 29.82 in 10.0 mi SSE 16.1 mph - N/A   Mostly Cloudy
9:26 PM 72.0 °F - 66.0 °F 81% 29.85 in 10.0 mi SSE 13.8 mph 28.8 mph N/A   Scattered Clouds
9:53 PM 72.0 °F - 66.0 °F 81% 29.82 in 10.0 mi SSE 15.0 mph 23.0 mph N/A   Clear
10:22 PM 71.1 °F - 66.0 °F 84% 29.85 in 10.0 mi SSE 12.7 mph 19.6 mph N/A   Mostly Cloudy
10:53 PM 71.1 °F - 66.9 °F 87% 29.81 in 10.0 mi SSE 13.8 mph 24.2 mph N/A   Overcast
11:42 PM 71.1 °F - 66.9 °F 87% 29.84 in 10.0 mi SSE 12.7 mph 24.2 mph N/A   Scattered Clouds
11:50 PM 71.6 °F - 66.2 °F 83% 29.84 in 10.0 mi South 13.8 mph - N/A   Mostly Cloudy
11:53 PM 71.1 °F - 66.9 °F 87% 29.81 in 10.0 mi SSE 16.1 mph - N/A   Mostly Cloudy